FW7782 Weather Reports


time (UTC)temp
C
wind
direction
speed
KPH
gust
KPH
rain 1hr
cm
rain 24hr
cm
rain mn
cm
humidity
%
barometer
mb
20260504081601 17 0 1.6 6.4 0.00 0.33 0.33 96 1013.0
20260504050110 16 44 8.0 11.3 0.00 0.28 0.28 97 1012.6
20260504044554 16 24 3.2 9.7 0.00 0.28 0.28 97 1012.4
20260504043059 16 28 4.8 12.9 0.00 0.28 0.28 97 1012.3
20260504041551 16 41 6.4 12.9 0.00 0.28 0.28 97 1012.4
20260504040057 16 63 8.0 14.5 0.00 0.28 0.28 97 1012.5
20260504034555 16 24 8.0 16.1 0.00 0.28 0.28 97 1012.5
20260504033100 16 29 6.4 14.5 0.00 0.28 0.28 97 1012.6
20260504031552 16 27 6.4 11.3 0.00 0.28 0.28 96 1012.8
20260504030051 16 36 6.4 12.9 0.00 0.28 0.28 96 1012.9
20260504024558 16 44 9.7 14.5 0.00 0.28 0.28 96 1012.9
20260504023055 16 21 8.0 11.3 0.03 0.28 0.28 96 1013.0
20260504021557 17 20 6.4 9.7 0.18 0.28 0.28 96 1013.0
20260504020103 17 58 3.2 6.4 0.23 0.28 0.28 96 1013.1
20260504014553 17 183 0.0 4.8 0.25 0.28 0.28 96 1013.1
20260504013050 17 0 0.0 0.0 0.23 0.23 0.23 96 1013.2
20260504011550 17 0 0.0 6.4 0.08 0.08 0.08 95 1013.2
20260504010047 17 78 0.0 4.8 0.03 0.03 0.03 95 1013.2
20260504004551 17 0 1.6 3.2 0.00 0.00 0.00 95 1013.4
20260504003049 17 0 0.0 0.0 0.00 0.00 0.00 95 1013.3
20260504001553 17 0 0.0 6.4 0.00 0.00 0.00 94 1013.5
20260504000056 17 41 3.2 6.4 0.00 0.00 0.00 94 1013.3
20260503234549 17 58 3.2 9.7 0.00 0.00 0.00 93 1013.5
20260503233044 17 53 6.4 9.7 0.00 0.00 0.00 92 1013.6
20260503231552 17 27 1.6 6.4 0.00 0.00 0.00 92 1013.8
20260503224557 17 41 4.8 9.7 0.00 0.00 0.00 92 1013.8
20260503223048 17 32 3.2 8.0 0.00 0.00 0.00 91 1014.0
20260503221556 18 31 4.8 9.7 0.00 0.00 0.00 91 1014.1
20260503220048 18 59 3.2 6.4 0.00 0.00 0.00 90 1014.1
20260503214551 18 85 4.8 9.7 0.00 0.00 0.00 90 1014.3
20260503213059 18 64 6.4 9.7 0.00 0.00 0.00 90 1014.4
20260503211609 18 94 4.8 12.9 0.00 0.00 0.00 91 1014.4
20260503210053 18 70 4.8 11.3 0.00 0.00 0.00 91 1014.2
20260503204558 18 84 6.4 14.5 0.00 0.00 0.00 90 1014.3
20260503203052 18 84 4.8 11.3 0.00 0.00 0.00 90 1014.1
20260503201552 18 74 3.2 12.9 0.00 0.00 0.00 90 1013.9
20260503200106 17 75 8.0 12.9 0.00 0.00 0.00 90 1013.8
20260503194601 18 63 6.4 11.3 0.00 0.00 0.00 90 1013.4
20260503193101 17 86 4.8 11.3 0.00 0.00 0.00 90 1013.2
20260503191549 18 99 4.8 14.5 0.00 0.00 0.00 89 1012.7
20260503190051 18 71 6.4 14.5 0.00 0.00 0.00 89 1012.6
20260503184601 18 95 9.7 16.1 0.00 0.00 0.00 88 1012.7
20260503183050 18 121 8.0 17.7 0.00 0.00 0.00 87 1012.5
20260503181609 18 72 9.7 19.3 0.00 0.00 0.00 87 1012.4
20260503180111 18 75 11.3 17.7 0.00 0.00 0.00 86 1012.4
20260503174600 18 89 9.7 19.3 0.00 0.00 0.00 85 1012.4
20260503173059 18 89 8.0 17.7 0.00 0.00 0.00 86 1012.2
20260503171554 18 88 9.7 19.3 0.00 0.00 0.00 84 1012.0